Back to catalog

STARLINK-31991

AliveCommunicationsVLEO
NORAD 59963·PAYLOAD·🇺🇸 United States

Launched Jun 5, 2024 from Cape Canaveral Space Force Station

Loading…

Next Passes (next 24 hours)

TLE

FreshSource: CelesTrak SupGP

Epoch: Sep 14, 2026, 13:46 UTC

1 59963C 24107U   26257.57409722  .00008613  00000+0  25453-3 0  2570
2 59963  53.1570 265.3726 0001208  82.7975 331.8774 15.34378668    10

Track STARLINK-31991 in real time with AllMySat

Download on the App Store